BADGR41 KSUU-KEDW

Flight info

Callsign BADGR41
Flight time 0h 30m
Altitude 13500
Route KSUU 4CA2 CA74 4CA8 9CLO KMCE 206 KMAE KFCH 87CA KH00 P27 L73 L45 SCL8 KTSP KMHV KEDW RW23L
Aircraft F22/L-ICAO/C

Departure

Time 2026-05-04 16:18
Airport Travis Air Force Base (KSUU)

Arrival

Time 2026-05-04 16:48
Airport Edwards Air Force Base (KEDW)
Time Latitude Longitude Altitude Speed Heading
2026-05-04 15:55 38.26427 -121.94586 53 ft 0 kts 179°
2026-05-04 15:56 38.26417 -121.94574 53 ft 7 kts 112°
2026-05-04 15:57 38.26382 -121.94506 49 ft 11 kts 154°
2026-05-04 15:57 38.26332 -121.94539 52 ft 10 kts 269°
2026-05-04 15:57 38.26332 -121.94648 52 ft 14 kts 270°
2026-05-04 15:57 38.26268 -121.94741 52 ft 16 kts 237°
2026-05-04 15:58 38.26193 -121.94838 51 ft 18 kts 188°
2026-05-04 15:58 38.26055 -121.94864 50 ft 22 kts 188°
2026-05-04 15:58 38.25943 -121.94883 50 ft 15 kts 188°
2026-05-04 15:58 38.25824 -121.94904 49 ft 19 kts 188°
2026-05-04 15:59 38.25680 -121.94928 48 ft 23 kts 187°
2026-05-04 15:59 38.25514 -121.94957 47 ft 26 kts 187°
2026-05-04 15:59 38.25334 -121.94991 46 ft 24 kts 189°
2026-05-04 15:59 38.25204 -121.95012 45 ft 17 kts 176°
2026-05-04 16:00 38.25194 -121.94902 45 ft 19 kts 49°
2026-05-04 16:00 38.25286 -121.94773 46 ft 21 kts 46°
2026-05-04 16:00 38.25394 -121.94622 47 ft 25 kts 48°
2026-05-04 16:00 38.25516 -121.94451 48 ft 28 kts 47°
2026-05-04 16:01 38.25770 -121.94099 50 ft 138 kts 49°
2026-05-04 16:01 38.26433 -121.94586 53 ft 7 kts 180°
2026-05-04 16:04 38.26382 -121.94505 53 ft 12 kts 149°
2026-05-04 16:04 38.26289 -121.94502 52 ft 15 kts 201°
2026-05-04 16:05 38.26255 -121.94630 52 ft 18 kts 270°
2026-05-04 16:05 38.26247 -121.94798 49 ft 19 kts 232°
2026-05-04 16:05 38.25955 -121.94881 50 ft 25 kts 188°
2026-05-04 16:06 38.25775 -121.94914 48 ft 27 kts 188°
2026-05-04 16:06 38.25277 -121.95002 45 ft 17 kts 187°
2026-05-04 16:07 38.25180 -121.94920 45 ft 19 kts 51°
2026-05-04 16:07 38.25545 -121.94411 48 ft 32 kts 47°
2026-05-04 16:08 38.25648 -121.94267 49 ft 34 kts 47°
2026-05-04 16:08 38.26167 -121.93549 50 ft 27 kts 47°
2026-05-04 16:09 38.26239 -121.93226 55 ft 23 kts 91°
2026-05-04 16:09 38.26249 -121.92792 58 ft 23 kts 88°
2026-05-04 16:10 38.26317 -121.92412 55 ft 58 kts 47°
2026-05-04 16:11 38.27321 -121.91015 55 ft 50 kts 47°
2026-05-04 16:11 38.27383 -121.90823 54 ft 23 kts 137°
2026-05-04 16:12 38.27690 -121.90262 58 ft 34 kts 48°
2026-05-04 16:12 38.28058 -121.89747 57 ft 13 kts 37°
2026-05-04 16:13 38.28116 -121.89758 59 ft 0 kts 317°
2026-05-04 16:16 38.28137 -121.89782 58 ft 7 kts 317°
2026-05-04 16:17 38.27891 -121.90223 53 ft 182 kts 227°
2026-05-04 16:18 38.21239 -121.90675 2230 ft 565 kts 123°
2026-05-04 16:18 38.18789 -121.86751 3990 ft 567 kts 130°
2026-05-04 16:19 38.10577 -121.76678 9053 ft 546 kts 167°
2026-05-04 16:19 38.03599 -121.73367 9040 ft 548 kts 141°
2026-05-04 16:20 37.95405 -121.63461 10708 ft 548 kts 135°
2026-05-04 16:20 37.89621 -121.56923 10926 ft 566 kts 132°
2026-05-04 16:21 37.81945 -121.45395 13329 ft 565 kts 128°
2026-05-04 16:22 37.76572 -121.37898 14000 ft 589 kts 135°
2026-05-04 16:22 37.68851 -121.25700 14212 ft 600 kts 121°
2026-05-04 16:23 37.59819 -121.06757 13929 ft 1016 kts 124°
2026-05-04 16:24 37.42321 -120.76948 13848 ft 1069 kts 123°
2026-05-04 16:25 37.34128 -120.61341 13896 ft 1068 kts 123°
2026-05-04 16:26 37.15759 -120.31893 14266 ft 1076 kts 131°
2026-05-04 16:26 36.99897 -120.12306 13753 ft 1066 kts 140°
2026-05-04 16:27 36.88688 -120.00341 13399 ft 1052 kts 139°
2026-05-04 16:28 36.72567 -119.81719 13645 ft 1053 kts 137°
2026-05-04 16:28 36.52914 -119.70262 13826 ft 1055 kts 151°
2026-05-04 16:29 36.26136 -119.55757 15697 ft 1061 kts 157°
2026-05-04 16:30 36.07649 -119.43092 15167 ft 816 kts 126°
2026-05-04 16:31 36.00742 -119.34261 15291 ft 668 kts 146°
2026-05-04 16:31 35.88344 -119.26988 15710 ft 669 kts 160°
2026-05-04 16:32 35.75255 -119.20296 16049 ft 708 kts 160°
2026-05-04 16:33 35.65612 -119.15469 16389 ft 783 kts 160°
2026-05-04 16:33 35.55045 -119.10261 16267 ft 844 kts 158°
2026-05-04 16:34 35.43704 -119.04792 15603 ft 896 kts 160°
2026-05-04 16:34 35.37862 -119.01982 15113 ft 906 kts 158°
2026-05-04 16:35 35.23368 -118.97686 12437 ft 545 kts 195°
2026-05-04 16:35 35.13127 -119.00210 5366 ft 484 kts 188°
2026-05-04 16:36 35.10453 -119.02126 4558 ft 441 kts 244°
2026-05-04 16:36 35.13423 -119.06631 3304 ft 410 kts
2026-05-04 16:37 35.18661 -119.04389 2592 ft 418 kts 56°
2026-05-04 16:37 35.19273 -119.01015 2476 ft 418 kts 95°
2026-05-04 16:37 35.18404 -118.94051 2614 ft 417 kts 97°
2026-05-04 16:38 35.17609 -118.86441 2479 ft 487 kts 94°
2026-05-04 16:39 35.10555 -118.76495 2644 ft 558 kts 127°
2026-05-04 16:39 35.07371 -118.67577 3823 ft 619 kts 73°
2026-05-04 16:40 35.11433 -118.58523 4461 ft 632 kts 54°
2026-05-04 16:40 35.12969 -118.47948 4891 ft 649 kts 76°
2026-05-04 16:41 35.12267 -118.37398 4888 ft 618 kts 101°
2026-05-04 16:41 35.11358 -118.23533 4435 ft 579 kts 63°
2026-05-04 16:42 35.04520 -118.12993 3886 ft 584 kts 128°
2026-05-04 16:43 35.00020 -118.04662 3986 ft 588 kts 123°
2026-05-04 16:43 34.95852 -117.96181 3820 ft 580 kts 122°
2026-05-04 16:43 34.93555 -117.92188 3776 ft 568 kts 136°
2026-05-04 16:44 34.88595 -117.87384 4573 ft 460 kts 39°
2026-05-04 16:45 34.91935 -117.80986 4693 ft 427 kts 62°
2026-05-04 16:46 34.94996 -117.79871 4306 ft 201 kts 236°
2026-05-04 16:46 34.93560 -117.82555 3397 ft 194 kts 236°
2026-05-04 16:47 34.92146 -117.85259 2665 ft 165 kts 236°
2026-05-04 16:47 34.91038 -117.87409 2304 ft 135 kts 238°
2026-05-04 16:48 34.90646 -117.88458 2309 ft 18 kts 327°
2026-05-04 16:48 34.90769 -117.88551 2308 ft 22 kts 328°
2026-05-04 16:49 34.91050 -117.88762 2304 ft 18 kts 328°
2026-05-04 16:49 34.90977 -117.89099 2307 ft 34 kts 238°
2026-05-04 16:50 34.90738 -117.89573 2305 ft 32 kts 238°
2026-05-04 16:50 34.90538 -117.89963 2306 ft 22 kts 239°
2026-05-04 16:51 34.90629 -117.90078 2311 ft 20 kts 21°
2026-05-04 16:51 34.90772 -117.90012 2301 ft 24 kts 20°
2026-05-04 16:51 34.91098 -117.90048 2305 ft 23 kts 329°
2026-05-04 16:52 34.91260 -117.89869 2301 ft 16 kts
2026-05-04 16:52 34.91286 -117.89912 2301 ft 1 kts 251°
2026-05-04 16:53 34.91284 -117.89919 2307 ft 0 kts 250°